Time,TemperatureF,DewpointF,PressureIn,WindDirection,WindDirectionDegrees,WindSpeedMPH,WindSpeedGustMPH,Humidity,HourlyPrecipIn,Conditions,Clouds,dailyrainin,SoftwareType,DateUTC
2013-04-08 00:02:00,33.0,28.0,29.68,North,-999,-999.0,-999.0,80,-99.99,,,-99.99,,2013-04-08 06:02:00,
2013-04-08 00:12:00,33.0,28.0,29.68,North,-999,-999.0,-999.0,80,-99.99,,,-99.99,,2013-04-08 06:12:00,
2013-04-08 00:22:00,33.0,28.0,29.68,North,-999,-999.0,-999.0,80,-99.99,,,-99.99,,2013-04-08 06:22:00,
2013-04-08 00:32:00,33.0,28.0,29.67,North,-999,-999.0,-999.0,81,-99.99,,,-99.99,,2013-04-08 06:32:00,
2013-04-08 00:42:00,33.0,28.0,29.67,North,-999,-999.0,-999.0,81,-99.99,,,-99.99,,2013-04-08 06:42:00,
2013-04-08 00:52:00,32.0,27.0,29.67,North,-999,-999.0,-999.0,80,-99.99,,,-99.99,,2013-04-08 06:52:00,
2013-04-08 01:02:00,33.0,28.0,29.67,North,-999,-999.0,-999.0,81,-99.99,,,-99.99,,2013-04-08 07:02:00,
2013-04-08 01:12:00,33.0,27.0,29.67,North,-999,-999.0,-999.0,77,-99.99,,,-99.99,,2013-04-08 07:12:00,
2013-04-08 01:22:00,33.0,27.0,29.67,North,-999,-999.0,-999.0,77,-99.99,,,-99.99,,2013-04-08 07:22:00,
2013-04-08 01:30:00,33.0,26.0,29.65,North,-999,-999.0,-999.0,76,-99.99,,,-99.99,,2013-04-08 07:30:00,
2013-04-08 01:32:00,33.0,27.0,29.67,North,-999,-999.0,-999.0,77,-99.99,,,-99.99,,2013-04-08 07:32:00,
2013-04-08 01:42:00,33.0,27.0,29.67,North,-999,-999.0,-999.0,77,-99.99,,,-99.99,,2013-04-08 07:42:00,
2013-04-08 01:52:00,33.0,26.0,29.65,North,-999,-999.0,-999.0,76,-99.99,,,-99.99,,2013-04-08 07:52:00,
2013-04-08 02:02:00,33.0,26.0,29.65,North,-999,-999.0,-999.0,76,-99.99,,,-99.99,,2013-04-08 08:02:00,
2013-04-08 02:12:00,33.0,26.0,29.65,North,-999,-999.0,-999.0,76,-99.99,,,-99.99,,2013-04-08 08:12:00,
2013-04-08 02:22:00,33.0,26.0,29.65,North,-999,-999.0,-999.0,76,-99.99,,,-99.99,,2013-04-08 08:22:00,
2013-04-08 02:43:00,33.0,25.0,29.64,North,-999,-999.0,-999.0,73,-99.99,,,-99.99,,2013-04-08 08:43:00,
2013-04-08 02:52:00,33.0,25.0,29.64,North,-999,-999.0,-999.0,73,-99.99,,,-99.99,,2013-04-08 08:52:00,
2013-04-08 03:02:00,32.0,25.0,29.64,North,-999,-999.0,-999.0,75,-99.99,,,-99.99,,2013-04-08 09:02:00,
2013-04-08 03:12:00,32.0,25.0,29.64,North,-999,-999.0,-999.0,75,-99.99,,,-99.99,,2013-04-08 09:12:00,
2013-04-08 03:22:00,33.0,25.0,29.63,North,-999,-999.0,-999.0,73,-99.99,,,-99.99,,2013-04-08 09:22:00,
2013-04-08 03:32:00,32.0,26.0,29.62,North,-999,-999.0,-999.0,77,-99.99,,,-99.99,,2013-04-08 09:32:00,
2013-04-08 03:42:00,32.0,26.0,29.62,North,-999,-999.0,-999.0,77,-99.99,,,-99.99,,2013-04-08 09:42:00,
2013-04-08 03:53:00,31.0,27.0,29.63,North,-999,-999.0,-999.0,85,-99.99,,,-99.99,,2013-04-08 09:53:00,
2013-04-08 04:03:00,31.0,27.0,29.62,North,-999,-999.0,-999.0,85,-99.99,,,-99.99,,2013-04-08 10:03:00,
2013-04-08 04:13:00,31.0,27.0,29.62,North,-999,-999.0,-999.0,85,-99.99,,,-99.99,,2013-04-08 10:13:00,
2013-04-08 04:23:00,31.0,27.0,29.62,North,-999,-999.0,-999.0,86,-99.99,,,-99.99,,2013-04-08 10:23:00,
2013-04-08 04:32:00,31.0,27.0,29.62,North,-999,-999.0,-999.0,85,-99.99,,,-99.99,,2013-04-08 10:32:00,
2013-04-08 04:42:00,31.0,27.0,29.62,North,-999,-999.0,-999.0,85,-99.99,,,-99.99,,2013-04-08 10:42:00,
2013-04-08 04:53:00,31.0,27.0,29.62,North,-999,-999.0,-999.0,86,-99.99,,,-99.99,,2013-04-08 10:53:00,
2013-04-08 05:02:00,31.0,28.0,29.62,North,-999,-999.0,-999.0,88,-99.99,,,-99.99,,2013-04-08 11:02:00,
2013-04-08 05:12:00,31.0,28.0,29.62,North,-999,-999.0,-999.0,88,-99.99,,,-99.99,,2013-04-08 11:12:00,
2013-04-08 05:22:00,31.0,28.0,29.61,North,-999,-999.0,-999.0,90,-99.99,,,-99.99,,2013-04-08 11:22:00,
2013-04-08 05:32:00,30.0,28.0,29.60,North,-999,-999.0,-999.0,93,-99.99,,,-99.99,,2013-04-08 11:32:00,
2013-04-08 05:42:00,30.0,28.0,29.60,North,-999,-999.0,-999.0,93,-99.99,,,-99.99,,2013-04-08 11:42:00,
2013-04-08 05:52:00,30.0,28.0,29.61,North,-999,-999.0,-999.0,94,-99.99,,,-99.99,,2013-04-08 11:52:00,
2013-04-08 06:02:00,30.0,28.0,29.60,North,-999,-999.0,-999.0,94,-99.99,,,-99.99,,2013-04-08 12:02:00,
2013-04-08 06:12:00,30.0,28.0,29.60,North,-999,-999.0,-999.0,94,-99.99,,,-99.99,,2013-04-08 12:12:00,
2013-04-08 06:22:00,30.0,28.0,29.60,North,-999,-999.0,-999.0,94,-99.99,,,-99.99,,2013-04-08 12:22:00,
2013-04-08 06:32:00,29.0,27.0,29.61,North,-999,-999.0,-999.0,94,-99.99,,,-99.99,,2013-04-08 12:32:00,
2013-04-08 06:42:00,29.0,27.0,29.61,North,-999,-999.0,-999.0,94,-99.99,,,-99.99,,2013-04-08 12:42:00,
2013-04-08 06:52:00,29.0,28.0,29.60,North,-999,-999.0,-999.0,95,-99.99,,,-99.99,,2013-04-08 12:52:00,
2013-04-08 07:02:00,29.0,27.0,29.60,North,-999,-999.0,-999.0,94,-99.99,,,-99.99,,2013-04-08 13:02:00,
2013-04-08 07:12:00,29.0,27.0,29.60,North,-999,-999.0,-999.0,94,-99.99,,,-99.99,,2013-04-08 13:12:00,
2013-04-08 07:22:00,29.0,27.0,29.60,North,-999,-999.0,-999.0,94,-99.99,,,-99.99,,2013-04-08 13:22:00,
2013-04-08 07:32:00,29.0,28.0,29.60,North,-999,-999.0,-999.0,95,-99.99,,,-99.99,,2013-04-08 13:32:00,
2013-04-08 07:42:00,29.0,28.0,29.60,North,-999,-999.0,-999.0,95,-99.99,,,-99.99,,2013-04-08 13:42:00,
2013-04-08 07:52:00,29.0,28.0,29.59,North,-999,-999.0,-999.0,95,-99.99,,,-99.99,,2013-04-08 13:52:00,
2013-04-08 08:02:00,29.0,28.0,29.59,North,-999,-999.0,-999.0,95,-99.99,,,-99.99,,2013-04-08 14:02:00,
2013-04-08 08:12:00,29.0,28.0,29.59,North,-999,-999.0,-999.0,95,-99.99,,,-99.99,,2013-04-08 14:12:00,
2013-04-08 08:22:00,29.0,28.0,29.60,North,-999,-999.0,-999.0,95,-99.99,,,-99.99,,2013-04-08 14:22:00,
2013-04-08 08:32:00,29.0,28.0,29.60,North,-999,-999.0,-999.0,95,-99.99,,,-99.99,,2013-04-08 14:32:00,
2013-04-08 08:42:00,29.0,28.0,29.60,North,-999,-999.0,-999.0,95,-99.99,,,-99.99,,2013-04-08 14:42:00,
2013-04-08 08:52:00,30.0,28.0,29.60,North,-999,-999.0,-999.0,94,-99.99,,,-99.99,,2013-04-08 14:52:00,
2013-04-08 09:02:00,30.0,28.0,29.60,North,-999,-999.0,-999.0,93,-99.99,,,-99.99,,2013-04-08 15:02:00,
2013-04-08 09:12:00,30.0,28.0,29.60,North,-999,-999.0,-999.0,93,-99.99,,,-99.99,,2013-04-08 15:12:00,
2013-04-08 09:22:00,30.0,28.0,29.60,North,-999,-999.0,-999.0,93,-99.99,,,-99.99,,2013-04-08 15:22:00,
2013-04-08 09:33:00,30.0,28.0,29.60,North,-999,-999.0,-999.0,92,-99.99,,,-99.99,,2013-04-08 15:33:00,
2013-04-08 09:42:00,30.0,28.0,29.60,North,-999,-999.0,-999.0,92,-99.99,,,-99.99,,2013-04-08 15:42:00,
2013-04-08 09:53:00,30.0,28.0,29.59,North,-999,-999.0,-999.0,92,-99.99,,,-99.99,,2013-04-08 15:53:00,
2013-04-08 10:02:00,30.0,28.0,29.59,North,-999,-999.0,-999.0,91,-99.99,,,-99.99,,2013-04-08 16:02:00,
2013-04-08 10:12:00,30.0,28.0,29.59,North,-999,-999.0,-999.0,91,-99.99,,,-99.99,,2013-04-08 16:12:00,
2013-04-08 10:22:00,30.0,28.0,29.60,North,-999,-999.0,-999.0,91,-99.99,,,-99.99,,2013-04-08 16:22:00,
2013-04-08 10:32:00,30.0,28.0,29.60,North,-999,-999.0,-999.0,91,-99.99,,,-99.99,,2013-04-08 16:32:00,
2013-04-08 10:42:00,30.0,28.0,29.59,North,-999,-999.0,-999.0,92,-99.99,,,-99.99,,2013-04-08 16:42:00,
2013-04-08 10:53:00,30.0,28.0,29.59,North,-999,-999.0,-999.0,92,-99.99,,,-99.99,,2013-04-08 16:53:00,
2013-04-08 11:02:00,30.0,28.0,29.59,North,-999,-999.0,-999.0,92,-99.99,,,-99.99,,2013-04-08 17:02:00,
2013-04-08 11:12:00,30.0,28.0,29.59,North,-999,-999.0,-999.0,93,-99.99,,,-99.99,,2013-04-08 17:12:00,
2013-04-08 11:22:00,30.0,28.0,29.59,North,-999,-999.0,-999.0,93,-99.99,,,-99.99,,2013-04-08 17:22:00,
2013-04-08 11:32:00,31.0,29.0,29.59,North,-999,-999.0,-999.0,92,-99.99,,,-99.99,,2013-04-08 17:32:00,
2013-04-08 11:43:00,31.0,29.0,29.59,North,-999,-999.0,-999.0,92,-99.99,,,-99.99,,2013-04-08 17:43:00,
2013-04-08 11:52:00,31.0,29.0,29.59,North,-999,-999.0,-999.0,92,-99.99,,,-99.99,,2013-04-08 17:52:00,
2013-04-08 12:02:00,31.0,29.0,29.59,North,-999,-999.0,-999.0,91,-99.99,,,-99.99,,2013-04-08 18:02:00,
2013-04-08 12:12:00,32.0,29.0,29.59,North,-999,-999.0,-999.0,90,-99.99,,,-99.99,,2013-04-08 18:12:00,
2013-04-08 12:22:00,32.0,29.0,29.59,North,-999,-999.0,-999.0,90,-99.99,,,-99.99,,2013-04-08 18:22:00,
2013-04-08 12:32:00,32.0,29.0,29.59,North,-999,-999.0,-999.0,90,-99.99,,,-99.99,,2013-04-08 18:32:00,
2013-04-08 12:42:00,32.0,29.0,29.59,North,-999,-999.0,-999.0,90,-99.99,,,-99.99,,2013-04-08 18:42:00,
2013-04-08 12:52:00,32.0,29.0,29.59,North,-999,-999.0,-999.0,90,-99.99,,,-99.99,,2013-04-08 18:52:00,
2013-04-08 13:02:00,33.0,30.0,29.58,North,-999,-999.0,-999.0,87,-99.99,,,-99.99,,2013-04-08 19:02:00,
2013-04-08 13:12:00,33.0,28.0,29.58,North,-999,-999.0,-999.0,83,-99.99,,,-99.99,,2013-04-08 19:12:00,
2013-04-08 13:22:00,33.0,28.0,29.58,North,-999,-999.0,-999.0,83,-99.99,,,-99.99,,2013-04-08 19:22:00,
2013-04-08 13:33:00,34.0,28.0,29.57,North,-999,-999.0,-999.0,79,-99.99,,,-99.99,,2013-04-08 19:33:00,
2013-04-08 13:42:00,34.0,29.0,29.57,North,-999,-999.0,-999.0,81,-99.99,,,-99.99,,2013-04-08 19:42:00,
2013-04-08 13:52:00,34.0,29.0,29.57,North,-999,-999.0,-999.0,81,-99.99,,,-99.99,,2013-04-08 19:52:00,
2013-04-08 14:02:00,34.0,29.0,29.57,North,-999,-999.0,-999.0,81,-99.99,,,-99.99,,2013-04-08 20:02:00,
2013-04-08 14:12:00,34.0,29.0,29.57,North,-999,-999.0,-999.0,81,-99.99,,,-99.99,,2013-04-08 20:12:00,
2013-04-08 14:22:00,34.0,28.0,29.56,North,-999,-999.0,-999.0,77,-99.99,,,-99.99,,2013-04-08 20:22:00,
2013-04-08 14:32:00,35.0,26.0,29.56,North,-999,-999.0,-999.0,68,-99.99,,,-99.99,,2013-04-08 20:32:00,
2013-04-08 14:42:00,36.0,25.0,29.56,North,-999,-999.0,-999.0,65,-99.99,,,-99.99,,2013-04-08 20:42:00,
2013-04-08 14:52:00,36.0,25.0,29.56,North,-999,-999.0,-999.0,65,-99.99,,,-99.99,,2013-04-08 20:52:00,
2013-04-08 15:02:00,36.0,25.0,29.57,North,-999,-999.0,-999.0,64,-99.99,,,-99.99,,2013-04-08 21:02:00,
2013-04-08 15:12:00,36.0,25.0,29.57,North,-999,-999.0,-999.0,64,-99.99,,,-99.99,,2013-04-08 21:12:00,
2013-04-08 15:22:00,35.0,26.0,29.58,North,-999,-999.0,-999.0,69,-99.99,,,-99.99,,2013-04-08 21:22:00,
2013-04-08 15:32:00,34.0,27.0,29.58,North,-999,-999.0,-999.0,75,-99.99,,,-99.99,,2013-04-08 21:32:00,
2013-04-08 15:43:00,34.0,27.0,29.58,North,-999,-999.0,-999.0,75,-99.99,,,-99.99,,2013-04-08 21:43:00,
2013-04-08 15:53:00,33.0,28.0,29.59,North,-999,-999.0,-999.0,82,-99.99,,,-99.99,,2013-04-08 21:53:00,
2013-04-08 16:02:00,33.0,25.0,29.58,North,-999,-999.0,-999.0,72,-99.99,,,-99.99,,2013-04-08 22:02:00,
2013-04-08 16:12:00,33.0,25.0,29.58,North,-999,-999.0,-999.0,72,-99.99,,,-99.99,,2013-04-08 22:12:00,
2013-04-08 16:22:00,33.0,24.0,29.59,North,-999,-999.0,-999.0,70,-99.99,,,-99.99,,2013-04-08 22:22:00,
2013-04-08 16:32:00,33.0,24.0,29.59,North,-999,-999.0,-999.0,70,-99.99,,,-99.99,,2013-04-08 22:32:00,
2013-04-08 16:42:00,30.0,25.0,29.60,North,-999,-999.0,-999.0,82,-99.99,,,-99.99,,2013-04-08 22:42:00,
2013-04-08 16:53:00,30.0,25.0,29.60,North,-999,-999.0,-999.0,81,-99.99,,,-99.99,,2013-04-08 22:53:00,
2013-04-08 17:02:00,29.0,23.0,29.60,North,-999,-999.0,-999.0,78,-99.99,,,-99.99,,2013-04-08 23:02:00,
2013-04-08 17:12:00,29.0,23.0,29.60,North,-999,-999.0,-999.0,78,-99.99,,,-99.99,,2013-04-08 23:12:00,
2013-04-08 17:22:00,29.0,23.0,29.60,North,-999,-999.0,-999.0,78,-99.99,,,-99.99,,2013-04-08 23:22:00,
2013-04-08 17:32:00,29.0,23.0,29.61,North,-999,-999.0,-999.0,78,-99.99,,,-99.99,,2013-04-08 23:32:00,
2013-04-08 17:42:00,29.0,23.0,29.61,North,-999,-999.0,-999.0,78,-99.99,,,-99.99,,2013-04-08 23:42:00,
2013-04-08 17:52:00,29.0,22.0,29.61,North,-999,-999.0,-999.0,75,-99.99,,,-99.99,,2013-04-08 23:52:00,
2013-04-08 18:02:00,29.0,22.0,29.61,North,-999,-999.0,-999.0,75,-99.99,,,-99.99,,2013-04-09 00:02:00,
2013-04-08 18:12:00,29.0,22.0,29.61,North,-999,-999.0,-999.0,75,-99.99,,,-99.99,,2013-04-09 00:12:00,
2013-04-08 18:22:00,30.0,21.0,29.61,North,-999,-999.0,-999.0,68,-99.99,,,-99.99,,2013-04-09 00:22:00,
2013-04-08 18:32:00,30.0,21.0,29.61,North,-999,-999.0,-999.0,68,-99.99,,,-99.99,,2013-04-09 00:32:00,
2013-04-08 18:42:00,30.0,21.0,29.61,North,-999,-999.0,-999.0,68,-99.99,,,-99.99,,2013-04-09 00:42:00,
2013-04-08 18:52:00,29.0,20.0,29.63,North,-999,-999.0,-999.0,69,-99.99,,,-99.99,,2013-04-09 00:52:00,
2013-04-08 19:02:00,28.0,20.0,29.63,North,-999,-999.0,-999.0,71,-99.99,,,-99.99,,2013-04-09 01:02:00,
2013-04-08 19:12:00,28.0,20.0,29.63,North,-999,-999.0,-999.0,71,-99.99,,,-99.99,,2013-04-09 01:12:00,
2013-04-08 19:22:00,29.0,18.0,29.64,North,-999,-999.0,-999.0,63,-99.99,,,-99.99,,2013-04-09 01:22:00,
2013-04-08 19:32:00,30.0,17.0,29.64,North,-999,-999.0,-999.0,59,-99.99,,,-99.99,,2013-04-09 01:32:00,
2013-04-08 19:42:00,30.0,17.0,29.64,North,-999,-999.0,-999.0,59,-99.99,,,-99.99,,2013-04-09 01:42:00,
2013-04-08 19:52:00,30.0,16.0,29.64,North,-999,-999.0,-999.0,56,-99.99,,,-99.99,,2013-04-09 01:52:00,
2013-04-08 20:02:00,30.0,15.0,29.65,North,-999,-999.0,-999.0,54,-99.99,,,-99.99,,2013-04-09 02:02:00,
2013-04-08 20:12:00,30.0,15.0,29.65,North,-999,-999.0,-999.0,54,-99.99,,,-99.99,,2013-04-09 02:12:00,
2013-04-08 20:22:00,29.0,16.0,29.66,North,-999,-999.0,-999.0,57,-99.99,,,-99.99,,2013-04-09 02:22:00,
2013-04-08 20:32:00,28.0,15.0,29.66,North,-999,-999.0,-999.0,57,-99.99,,,-99.99,,2013-04-09 02:32:00,
2013-04-08 20:42:00,28.0,15.0,29.66,North,-999,-999.0,-999.0,57,-99.99,,,-99.99,,2013-04-09 02:42:00,
2013-04-08 20:52:00,28.0,14.0,29.66,North,-999,-999.0,-999.0,55,-99.99,,,-99.99,,2013-04-09 02:52:00,
2013-04-08 21:02:00,28.0,14.0,29.67,North,-999,-999.0,-999.0,54,-99.99,,,-99.99,,2013-04-09 03:02:00,
2013-04-08 21:12:00,28.0,14.0,29.67,North,-999,-999.0,-999.0,54,-99.99,,,-99.99,,2013-04-09 03:12:00,
2013-04-08 21:21:00,28.0,13.0,29.67,North,-999,-999.0,-999.0,53,-99.99,,,-99.99,,2013-04-09 03:21:00,
2013-04-08 21:32:00,27.0,12.0,29.68,North,-999,-999.0,-999.0,52,-99.99,,,-99.99,,2013-04-09 03:32:00,
2013-04-08 21:43:00,27.0,12.0,29.68,North,-999,-999.0,-999.0,52,-99.99,,,-99.99,,2013-04-09 03:43:00,
2013-04-08 21:53:00,27.0,12.0,29.69,North,-999,-999.0,-999.0,53,-99.99,,,-99.99,,2013-04-09 03:53:00,
2013-04-08 22:02:00,26.0,10.0,29.69,North,-999,-999.0,-999.0,51,-99.99,,,-99.99,,2013-04-09 04:02:00,
2013-04-08 22:13:00,26.0,10.0,29.69,North,-999,-999.0,-999.0,51,-99.99,,,-99.99,,2013-04-09 04:13:00,
2013-04-08 22:22:00,25.0,10.0,29.70,North,-999,-999.0,-999.0,52,-99.99,,,-99.99,,2013-04-09 04:22:00,
2013-04-08 22:32:00,25.0,9.0,29.70,North,-999,-999.0,-999.0,51,-99.99,,,-99.99,,2013-04-09 04:32:00,
2013-04-08 22:42:00,25.0,9.0,29.70,North,-999,-999.0,-999.0,51,-99.99,,,-99.99,,2013-04-09 04:42:00,
2013-04-08 22:53:00,25.0,9.0,29.70,North,-999,-999.0,-999.0,51,-99.99,,,-99.99,,2013-04-09 04:53:00,
2013-04-08 23:02:00,25.0,7.0,29.71,North,-999,-999.0,-999.0,46,-99.99,,,-99.99,,2013-04-09 05:02:00,
2013-04-08 23:12:00,25.0,7.0,29.71,North,-999,-999.0,-999.0,46,-99.99,,,-99.99,,2013-04-09 05:12:00,
2013-04-08 23:22:00,25.0,7.0,29.72,North,-999,-999.0,-999.0,46,-99.99,,,-99.99,,2013-04-09 05:22:00,
2013-04-08 23:32:00,25.0,7.0,29.72,North,-999,-999.0,-999.0,46,-99.99,,,-99.99,,2013-04-09 05:32:00,
2013-04-08 23:42:00,25.0,7.0,29.72,North,-999,-999.0,-999.0,46,-99.99,,,-99.99,,2013-04-09 05:42:00,
2013-04-08 23:52:00,25.0,8.0,29.72,North,-999,-999.0,-999.0,47,-99.99,,,-99.99,,2013-04-09 05:52:00,